Location: Newark
(44.5425°N, 10.7801°E)
Time: 16:33:49
(UTC+00:00)

N. Korean satellite - Pass Details

Date: 23 January 2020
Orbit: 456 x 506 km, 97.2° (Epoch: 17 February)

Event Time Altitude Azimuth Distance (km) Brightness Sun altitude
Rises 05:00:11 0° 14° (NNE) 2,527 10.3 -18.5°
Reaches altitude 10° 05:02:15 10° 17° (NNE) 1,652 9.3 -18.2°
Maximum altitude 05:05:47 68° 101° (ESE) 522 6.8 -17.5°
Drops below altitude 10° 05:09:21 10° 185° (S) 1,667 9.3 -16.9°
Sets 05:11:26 0° 188° (S) 2,551 10.3 -16.6°
